Home > Weather > Krishnagiri > Past weeks

Flag for India Past Weather in Krishnagiri, Tamil Nadu, India — Yesterday and Last 2 Weeks

Now
70 °F

Drizzle. Cloudy.


Feels Like: 70 °F
Forecast: 72 / 84 °F
Wind: 9 mph from Northwest

Location: Bangalore / Hindustan

Current Time: Jul 29, 2016 at 11:36:30 AM

Latest Report: Jul 29, 2016 at 11:00 AM


Visibility: 4 mi

Pressure: 29.92 "Hg

Humidity: 94%

Dew Point: 68 °F

Location of KrishnagiriLocation

Past Weather in Krishnagiri — Graph

°F

Krishnagiri Temperature Yesterday

Maximum temperature yesterday: 82 °F (at 1:30 PM)
Minimum temperature yesterday: 68 °F (at 5:30 AM)
Average temperature yesterday: 76 °F

High & Low Weather Summary for the Past Weeks

 TemperatureHumidityPressure
High86 °F (Jul 14, 3:30 PM)100% (Jul 26, 6:00 AM)30.01 "Hg (Jul 26, 6:00 AM)
Low68 °F (Jul 19, 6:30 AM)49% (Jul 14, 3:30 PM)29.74 "Hg (Jul 25, 5:00 PM)
Average76 °F74%29.87 "Hg
* Reported Jul 14 10:30 AM — Jul 29 10:30 AM, Krishnagiri, Weather by CustomWeather, © 2016

Note: Actual official high and low records may vary slightly from our data, if they occured in-between our weather recording intervals... More about our weather records

Advertising

Krishnagiri Weather History for the Previous 24 Hours

Scroll right to see more
 ConditionsComfort  
Time TempWeatherWind HumidityBarometerVisibility
10:30 AM
Fri, Jul 29
70 °FDrizzle. Cloudy.9 mph94%29.92 "Hg4 mi
10:00 AM68 °FDrizzle. Cloudy.12 mph100%29.92 "Hg4 mi
9:30 AM68 °FLight rain. Cloudy.9 mph100%29.92 "Hg2 mi
9:00 AM68 °FLight rain. Cloudy.9 mph100%29.92 "Hg2 mi
8:30 AM68 °FLight rain. Cloudy.9 mph100%29.92 "Hg2 mi
8:00 AM68 °FRain. Cloudy.9 mph94%29.92 "Hg2 mi
7:30 AM68 °FRain. Cloudy.9 mph94%29.89 "Hg2 mi
7:00 AM68 °FHeavy rain. Cloudy.9 mph100%29.89 "Hg2 mi
6:30 AM68 °FHeavy rain. Overcast.12 mph94%29.89 "Hg2 mi
6:00 AM70 °FRain. Partly cloudy.12 mph94%29.86 "Hg2 mi
5:30 AM70 °FRain. Partly cloudy.9 mph94%29.86 "Hg2 mi
11:30 PM
Thu, Jul 28
70 °FThunderstorms. Partly cloudy.7 mph94%29.89 "Hg4 mi
10:30 PM72 °FThunderstorms. Partly cloudy.7 mph88%29.89 "Hg4 mi
9:30 PM77 °FPassing clouds.3 mph79%29.89 "HgN/A
8:30 PM77 °FPassing clouds.5 mph74%29.83 "HgN/A
7:30 PM77 °FPassing clouds.3 mph74%29.83 "HgN/A
6:30 PM79 °FScattered clouds.3 mph70%29.80 "HgN/A
5:30 PM81 °FScattered clouds.3 mph66%29.80 "HgN/A
5:00 PM81 °FScattered clouds.6 mph66%29.80 "HgN/A
4:30 PM81 °FScattered clouds.6 mph66%29.80 "HgN/A
4:00 PM81 °FScattered clouds.3 mph66%29.80 "HgN/A
3:30 PM81 °FScattered clouds.5 mph66%29.80 "HgN/A
3:00 PM81 °FScattered clouds.6 mph66%29.83 "HgN/A
2:30 PM81 °FScattered clouds.5 mph62%29.83 "HgN/A
2:00 PM81 °FScattered clouds.6 mph62%29.83 "HgN/A
1:30 PM82 °FScattered clouds.7 mph62%29.86 "HgN/A
1:00 PM81 °FScattered clouds.7 mph66%29.86 "HgN/A
12:30 PM79 °FScattered clouds.6 mph70%29.86 "HgN/A
12:00 PM77 °FScattered clouds.6 mph79%29.89 "HgN/A
11:30 AM77 °FScattered clouds.9 mph74%29.89 "HgN/A
11:00 AM77 °FScattered clouds.7 mph74%29.89 "HgN/A
Weather by CustomWeather, © 2016

See weather overviewHow to use our weather pages